2021 DM
ephemeris date magn radius delta ra dec elong phase
Today5 Sep 202628.41.364 AU0.929 AU16h31m-34°34'89.4°47.7°
2021 DM - 2026-09-05
astro.vanbuitenen.nl


 
-1 year
-1 month
-1 day
Now
+1 day
+1 month
+1 year

The interactive orbit chart above shows the body's path through the solar system and its position at the given date. Green and blue lines are shown perpendicular to the ecliptic plane: Green if the path is above the ecliptic plane, blue if it is below. (Left-click and drag to rotate the view; Right-click and drag to move the view; Use scroll wheel to zoom in our out.)

The orbital elements of 2021 DM are:

            e (Eccentricity)                : 0.3278641
            a (Semimajor axis)              : 1.4290170
            i (Inclination)                 : 14.68834
            Ω (Longitude of ascending node) : 334.66324
            ω (Argument of perihelion)      : 222.89102
            M (Mean anomaly)                : 12.65113
            Epoch                           : 2026 Jun 09

            L (Longitude of perihelion)     : 16.60630
            B (Latitude of perihelion)      : -9.93758
            P (Orbital period in years)     : 1.71            
        

The light curve chart below shows the estimated development of the minor planet's magnitude.


The all-sky chart below shows the path of the minor planet over the same period as the light curve. The current position is marked yellow.





The following chart shows the path of the minor planet in the next few days. The field of view is optimized for (~10x50) binoculars and finderscopes.




Ephemerides:
Date       Time       RA (2000)    DEC (2000)    delta   radius  elong  phase   PA    magn
2026-09-05 00:00 UT   16 31 39.3   -34 34 45     0.929    1.364   89.4   47.7    99   28.4 
2026-09-05 16:07 UT   16 34 29.2   -34 29 09     0.935    1.367   89.4   47.5    99   28.4 
2026-09-06 00:00 UT   16 35 51.8   -34 26 22     0.938    1.369   89.3   47.4    99   28.4 
2026-09-07 00:00 UT   16 40 01.4   -34 17 44     0.948    1.374   89.2   47.2    98   28.5 
2026-09-08 00:00 UT   16 44 08.2   -34 08 50     0.957    1.379   89.1   47.0    98   28.5 
2026-09-09 00:00 UT   16 48 12.2   -33 59 42     0.967    1.384   88.9   46.7    97   28.5 
2026-09-10 00:00 UT   16 52 13.5   -33 50 21     0.977    1.388   88.8   46.5    97   28.5 
2026-09-11 00:00 UT   16 56 12.0   -33 40 47     0.987    1.393   88.6   46.3    97   28.5 
2026-09-12 00:00 UT   17 00 07.9   -33 31 00     0.997    1.398   88.5   46.0    96   28.6 
2026-09-13 00:00 UT   17 04 01.1   -33 21 03     1.008    1.403   88.3   45.8    96   28.6 
2026-09-14 00:00 UT   17 07 51.7   -33 10 54     1.018    1.408   88.1   45.6    96   28.6 
2026-09-15 00:00 UT   17 11 39.8   -33 00 36     1.028    1.412   87.9   45.4    95   28.6 


    Terminology:
            
    delta:  distance between minor planet and earth in AU
    radius: distance between minor planet and sun in AU
    magn:   magnitude (brightness) estimate    
    ra:     right ascension in hours (24h = 360deg)
    dec:    declination in degrees
    elong:  elongation in degrees (angle sun-earth-minor planet)    
    phase:  phase angle in degrees (angle sun-minor planet-earth)        
    AU:     Astronomical Unit (mean distance between earth and sun: 149597870.7 km
    

Orbital elements provided by the MPC (Minor Planet Center).
Calculations by a modified version of AAPlus, a C# implementation of the AA+ project by PJ Naughter from the algorithms presented in the book "Astronomical Algorithms" by Jean Meeus.
NGC2000 dso catalog and star labels from VizieR as provided by the Strasbourg astronomical Data Center.
Tycho2 catalog from the ESO archive.